Location: Unspecified
(52.4292°N, 19.3359°E)
Time: 10:24:50
(UTC+02:00)

Tiros 1 - Pass Details

Date: 25 May 2024
Orbit: 624 x 657 km, 48.4° (Epoch: 22 June)

Event Time Altitude Azimuth Distance (km) Brightness Sun altitude
Rises 11:40:26 0° 220° (SW) 2,961 10.7 56.6°
Reaches altitude 10° 11:43:03 10° 208° (SSW) 2,056 10.2 56.8°
Maximum altitude 11:47:00 27° 151° (SSE) 1,268 9.9 57.0°
Drops below altitude 10° 11:50:59 10° 95° (E) 2,069 10.1 57.3°
Sets 11:53:37 0° 83° (E) 2,984 10.7 57.4°
